Volver al catálogo

GLOBALSTAR M029

ActivoComunicacionesLEO
NORAD 25963·PAYLOAD·🇺🇸 United States

Lanzado Nov 22, 1999 desde Baikonur Cosmodrome

Loading…

Próximos Pases (próximas 24 horas)

TLE

ActualizadoSource: Space-Track

Época: Sep 14, 2026, 20:57 UTC

1 25963U 99062C   26257.87325637 -.00000060  00000-0  33053-3 0  9998
2 25963  51.9814 304.7249 0002282 285.0742 256.5524 11.99913540223701

Sigue GLOBALSTAR M029 en tiempo real con AllMySat

Download on the App Store